This is the latest recevied weather packets stored in our database for station/object DL3MEB-6. If no packets are shown the sender has not sent any weather packets the latest 10 day(s).
| Time | Temp. | Humidity | Pressure | Rain* | Wind** | Luminosity | Snow |
|---|---|---|---|---|---|---|---|
| 1777603340 | 4.44° C | 54% | 1026.4 hPa | 0 mm | - | - | - |
| 1777602431 | 4.44° C | 55% | 1026.4 hPa | 0 mm | - | - | - |
| 1777601517 | 3.89° C | 54% | 1026.5 hPa | 0 mm | - | - | - |
| 1777600617 | 3.89° C | 55% | 1026.6 hPa | 0 mm | - | - | - |
| 1777599705 | 3.89° C | 56% | 1026.7 hPa | 0 mm | - | - | - |
| 1777598803 | 4.44° C | 55% | 1026.7 hPa | 0 mm | - | - | - |
| 1777597902 | 4.44° C | 55% | 1026.7 hPa | 0 mm | - | - | - |
| 1777596989 | 5° C | 55% | 1026.6 hPa | 0 mm | - | - | - |
| 1777596080 | 5° C | 53% | 1026.7 hPa | 0 mm | - | - | - |
| 1777595181 | 5.56° C | 52% | 1026.8 hPa | 0 mm | - | - | - |
| 1777594275 | 5.56° C | 51% | 1026.8 hPa | 0 mm | - | - | - |
| 1777593364 | 5.56° C | 51% | 1026.7 hPa | 0 mm | - | - | - |
| 1777592459 | 5.56° C | 51% | 1026.7 hPa | 0 mm | - | - | - |
| 1777591551 | 6.11° C | 50% | 1026.9 hPa | 0 mm | - | - | - |
| 1777590646 | 6.11° C | 50% | 1027 hPa | 0 mm | - | - | - |
| 1777589746 | 6.11° C | 50% | 1027 hPa | 0 mm | - | - | - |
| 1777588846 | 6.11° C | 50% | 1026.9 hPa | 0 mm | - | - | - |
| 1777587940 | 6.11° C | 50% | 1026.9 hPa | 0 mm | - | - | - |
| 1777587034 | 6.67° C | 48% | 1027.1 hPa | 0 mm | - | - | - |
| 1777586129 | 6.67° C | 47% | 1027.1 hPa | 0 mm | - | - | - |
| 1777585224 | 7.22° C | 46% | 1027 hPa | 0 mm | - | - | - |
| 1777584320 | 7.22° C | 45% | 1026.9 hPa | 0 mm | - | - | - |
| 1777583407 | 7.78° C | 45% | 1027.1 hPa | 0 mm | - | - | - |
| 1777582504 | 7.78° C | 44% | 1027.1 hPa | 0 mm | - | - | - |
| 1777581604 | 8.33° C | 43% | 1027.1 hPa | 0 mm | - | - | - |
* Rain latest hour (hover to see other rain measurements)
** Current wind speed in m/s (hover to see current wind gust speed)